Location: Burgwalden
(48.2830°N, 10.7576°E)
Time: 21:01:34
(UTC+00:00)

Iridium 4 Rocket - Pass Details

Date: 26 September 2023
Orbit: 583 x 898 km, 86.9° (Epoch: 08 December)

Event Time Altitude Azimuth Distance (km) Brightness Sun altitude
Rises 02:00:05 0° 358° (N) 3,405 7.3 -30.1°
Reaches altitude 10° 02:02:36 10° 0° (N) 2,425 6.5 -29.8°
Enters shadow 02:07:35 68° 43° (NE) 832 3.7 -29.1°
